(2018 VP1) |
Classification: Apollo [NEO] SPK-ID: 3835977 |
[ hide orbit diagram ]
For accurate long-term ephemerides, please instead use our Horizons system.This orbit viewer was implemented using two-body methods, and hence should not be used for determining accurate long-term trajectories (over several years or decades) or planetary encounter circumstances.
Orbital Elements at Epoch 2459200.5 (2020-Dec-17.0) TDB
Reference: JPL 4 (heliocentric ecliptic J2000)
Element | Value | Uncertainty (1-sigma) | Units |
e | .4388053429781592 | 0.023203 | |
a | 1.620320875034393 | 0.085874 | au |
q | .9093154177302555 | 0.010596 | au |
i | 3.187132582311396 | 0.16941 | deg |
node | 39.76246868075821 | 0.035942 | deg |
peri | 316.5766791211074 | 3.7585 | deg |
M | 37.55974709252682 | 4.1187 | deg |
tp | 2459121.900437957472 (2020-Sep-29.40043796) | 2.3706 | TDB |
period | 753.3555075758197 2.06 | 59.89 0.164 | d yr |
n | .4778620404043022 | 0.037989 | deg/d |
Q | 2.331326332338531 | 0.12356 | au |
|
| | Orbit Determination Parameters
Additional Information
|
[ show covariance matrix ]
Physical Parameter Table
Parameter |
Symbol |
Value |
Units |
Sigma |
Reference |
Notes |
absolute magnitude |
H |
30.9 |
|
.36679 |
E2018W27 |
autocmod 2.6q |
|
[ show close-approach data ]
|